Lid_Strength_Index
1 1 1 1 1 0 0 0 -0 -0 -0 -0 -0 0 0 0 -0 0 0 0 1 1 1 1 1 1 1 1 1 1 2 2 4 2 1 1 2 0 -0 -1 -1 -1 -1
1 1 1 1 1 1 1 0 -0 0 -0 0 0 0 0 0 0 1 1 1 1 1 1 1 1 1 1 1 1 1 1 1 2 4 2 1 2 2 1 0 -0 -1 0
1 1 1 1 1 0 0 0 -0 0 0 0 0 1 1 1 1 0 0 1 1 1 1 1 1 1 1 2 1 1 1 1 1 2 3 1 1 2 2 1 1 1 1
1 1 1 0 0 0 0 0 0 0 0 0 0 0 0 0 0 1 1 1 1 1 1 1 1 1 1 2 1 1 1 2 2 2 2 2 2 2 2 3 3 3 3
2 2 2 1 1 1 1 0 0 0 0 0 0 0 0 0 1 1 1 1 1 1 1 1 3 4 3 3 2 1 1 2 2 3 3 3 3 3 4 4 4 5 5
2 2 1 1 1 1 1 1 1 1 1 1 1 1 1 1 5 5 2 1 1 1 1 3 4 5 5 5 4 4 3 3 2 3 3 3 3 2 3 4 4 5 6
1 1 1 1 1 1 1 1 1 1 1 1 1 1 1 1 6 5 4 1 1 1 1 2 3 3 4 6 5 5 4 4 3 2 2 2 2 1 1 4 5 5 6
2 1 1 1 1 1 1 1 1 1 1 1 1 1 1 2 7 7 4 1 1 1 1 2 1 4 4 5 3 4 3 3 4 2 2 1 0 0 0 2 3 4 5
2 2 1 1 1 1 2 2 1 1 1 1 1 1 1 1 6 7 4 1 1 1 1 1 3 3 5 5 2 3 3 4 6 6 6 4 2 2 1 1 2 3 5
2 1 1 1 1 1 1 1 1 1 1 1 1 1 3 1 6 8 6 1 2 2 1 1 4 2 6 6 2 3 4 4 4 5 5 4 2 2 1 -0 1 3 3
1 0 0 1 1 1 1 1 1 1 1 1 1 1 0 1 1 10 9 1 1 1 2 2 2 7 8 7 7 2 3 3 3 3 3 3 2 2 0 -0 -0 1 2
0 0 1 0 1 1 1 1 1 1 2 2 2 2 1 0 6 8 8 8 5 1 2 1 1 9 9 9 7 8 6 4 3 2 3 3 3 3 2 -0 -0 -0 -0
0 1 1 0 0 1 1 1 2 1 2 2 2 2 2 1 4 9 9 8 8 3 1 2 7 10 10 9 8 8 6 3 2 2 2 3 3 2 2 2 -0 -1 -0
1 1 0 0 1 0 1 1 2 2 2 2 2 3 3 2 5 5 4 3 6 4 4 5 7 7 8 6 7 6 3 2 2 2 2 3 3 3 3 2 2 1 1
0 0 0 -0 0 1 1 1 1 1 2 2 2 4 3 3 6 9 9 5 4 4 6 6 6 7 6 5 5 5 4 2 2 1 2 3 3 3 3 2 3 1 2
1 1 1 1 1 1 1 1 5 6 8 10 11 10 6 9 13 14 14 13 13 11 5 6 6 7 7 5 5 5 5 4 2 2 2 3 4 3 4 3 3 3 2
2 1 1 1 1 1 1 2 2 2 8 9 10 11 12 13 14 14 15 14 12 11 3 4 5 6 6 5 5 5 5 4 2 2 3 3 3 4 4 3 4 4 3
0 3 1 1 1 1 1 2 2 2 3 2 5 7 9 12 12 14 14 12 5 7 3 3 4 5 6 5 5 5 4 3 2 2 3 4 3 3 4 3 3 4 4
1 1 1 1 1 1 1 1 1 2 2 2 2 4 6 10 12 13 13 5 3 3 3 3 3 4 5 5 4 3 3 3 3 4 4 5 4 3 4 3 5 6 5
1 1 0 1 1 1 1 2 2 2 2 2 2 2 5 7 7 5 3 4 4 3 3 2 2 3 3 4 4 4 4 4 3 4 5 5 5 4 4 3 4 5 5
1 1 1 1 1 1 1 2 2 2 3 3 2 3 9 7 6 6 6 6 6 6 7 5 2 2 3 4 4 5 5 5 4 5 5 5 5 5 4 4 4 4 5
1 1 1 1 1 2 3 3 3 3 3 3 3 3 7 4 6 7 7 7 7 7 7 7 5 4 2 2 3 4 4 4 4 5 5 5 5 5 4 4 4 4 4
1 1 2 2 3 4 4 4 4 4 4 4 4 4 4 5 7 8 9 9 9 9 9 8 7 6 5 3 2 2 3 3 3 4 5 5 5 4 4 5 5 4 4
2 2 3 4 5 5 6 6 6 6 5 5 6 6 6 6 7 8 9 10 10 10 10 10 9 9 8 7 5 4 4 3 3 4 5 5 5 6 5 5 4 5 5
2 3 4 5 6 6 6 6 6 7 7 7 7 8 8 8 8 9 9 9 10 11 10 11 10 10 9 9 9 8 16 20 12 12 4 4 5 5 5 5 4 4 4
2 3 4 4 5 6 6 6 7 7 8 8 8 8 8 8 8 8 8 8 9 10 10 10 10 10 9 9 12 16 18 19 14 18 5 4 5 5 5 5 4 4 5